RH
66 65 62 62 59 68 69 64 57 58 56 56 55 54 52 58 64 53 45 42 40 40 46 48 52 50 47 50 47 43 47 53 47 44 40 40 37 40 39 42 58 62 60 52 51 54 55 54 54 58 59 62 66 72
74 68 65 63 64 69 65 70 69 64 63 56 58 54 60 60 58 64 63 51 47 41 46 48 50 48 46 48 47 47 49 51 49 50 48 44 41 42 50 51 64 72 73 77 76 70 64 65 72 75 84 86 78 76
85 82 79 74 76 79 78 78 78 76 72 69 71 70 71 63 67 56 64 63 62 58 53 55 56 53 47 51 48 44 48 57 56 59 60 61 57 56 58 59 74 80 88 86 93 97 98 96 90 85 77 71 77 81
87 84 86 92 93 91 97 100 90 89 86 80 84 75 72 74 82 63 58 59 58 58 59 52 50 46 47 52 55 48 44 48 57 66 68 69 69 65 64 71 73 86 99 100 99 100 98 95 97 96 87 83 77 80
100 100 100 96 92 92 96 95 99 98 96 95 90 83 78 74 74 74 69 67 70 68 58 55 49 45 45 43 49 49 43 47 57 61 65 68 76 94 87 81 69 94 99 100 93 100 98 98 100 99 98 96 95 91
100 100 100 100 97 98 94 90 86 86 83 84 84 88 90 94 92 86 85 82 72 65 61 54 46 40 34 35 36 40 43 35 36 43 48 53 74 100 100 82 88 100 100 100 100 100 100 100 100 100 98 100 100 100
100 97 100 100 100 100 100 99 96 96 95 94 91 90 95 92 96 99 88 72 62 51 43 41 37 29 14 12 20 20 18 20 20 23 24 34 46 65 79 59 80 100 100 100 97 100 100 100 99 98 90 90 99 100
100 100 100 100 100 100 100 100 100 100 100 100 100 100 99 100 85 53 46 43 24 12 7 6 7 4 3 3 3 4 5 6 12 21 15 18 35 46 35 41 90 100 98 98 93 87 81 82 82 82 88 97 100 100
38 77 84 75 94 95 96 99 100 100 100 100 100 100 100 99 87 49 37 26 17 14 14 12 3 1 1 2 2 2 2 2 5 6 8 14 14 20 39 95 98 100 91 87 85 79 75 82 94 100 100 100 100 100
27 17 24 22 12 8 33 58 55 38 68 83 82 79 59 40 26 15 9 8 5 3 3 2 2 2 4 4 4 3 3 5 4 3 6 6 8 40 88 87 92 94 95 85 77 74 76 77 80 84 90 93 90 87
4 4 4 4 4 4 4 4 4 4 4 4 4 4 4 4 4 4 4 4 4 3 3 3 4 4 5 5 5 5 6 6 4 6 12 12 11 28 33 33 35 37 43 49 55 58 62 72 82 86 87 83 78 72
3 3 3 3 3 3 3 3 4 4 4 4 4 4 4 4 4 4 4 4 4 5 4 4 4 5 7 7 7 8 8 7 7 9 11 10 14 18 24 31 38 48 58 63 69 71 77 78 77 76 76 78 80 82
3 2 2 2 2 3 3 3 3 3 3 3 3 3 3 4 5 6 8 9 9 10 8 9 8 8 12 14 13 12 11 11 11 11 12 14 15 16 15 23 25 29 30 35 40 48 54 58 62 63 62 65 60 54
5 5 4 4 4 4 5 5 4 4 4 4 4 4 5 5 6 10 13 13 13 12 12 15 16 16 20 21 20 17 20 19 23 28 32 47 73 89 55 45 38 34 32 27 27 27 27 27 33 24 28 29 27 28
12 12 12 11 10 8 9 8 8 7 7 9 8 8 8 14 30 32 27 26 26 27 28 29 28 29 31 33 31 34 42 37 41 50 60 71 72 56 38 33 32 32 34 37 47 56 63 60 56 63 61 52 46 40
64 58 28 15 16 19 20 16 13 11 15 17 8 23 37 41 46 45 44 43 46 49 51 51 50 55 55 56 51 44 40 36 35 44 44 41 36 33 33 34 32 31 36 42 42 42 46 52 61 52 45 65 92 91
99 76 70 47 42 36 28 26 30 30 21 13 43 64 64 64 65 68 66 63 61 64 75 69 55 46 44 43 43 42 37 34 34 27 22 20 26 30 35 30 26 25 37 40 32 26 23 23 25 25 26 28 31 31
100 100 100 72 77 62 53 63 61 47 39 63 74 84 87 87 90 88 85 85 100 84 58 58 53 42 66 62 49 53 52 41 30 25 18 19 23 23 29 34 41 52 54 57 47 50 61 72 84 82 72 57 46 37
100 100 100 100 99 100 97 96 81 62 76 86 97 100 100 96 97 100 100 100 85 72 67 56 53 62 93 84 78 54 49 37 26 22 18 18 25 39 53 53 56 74 68 67 74 85 89 84 68 58 58 46 43 38
100 100 100 100 100 100 94 70 62 68 72 78 85 90 83 87 92 90 100 100 90 73 72 66 67 84 100 82 80 62 45 30 24 21 19 25 38 48 47 63 62 63 70 64 68 70 65 63 73 93 88 90 90 59
100 93 92 95 94 96 95 73 62 58 60 61 74 73 68 72 81 87 88 93 89 87 78 83 100 100 96 95 84 60 38 33 36 41 39 29 30 37 40 49 61 62 71 73 68 64 74 79 90 92 100 83 94 66
100 98 98 84 80 90 80 63 66 71 68 72 57 60 57 76 95 100 100 100 93 88 100 100 100 94 100 87 52 42 41 41 45 48 49 45 39 38 42 48 57 63 72 78 81 83 70 62 76 92 93 98 76 60
100 100 100 100 100 100 95 81 85 74 69 81 100 79 63 69 67 65 52 49 58 99 100 100 100 100 68 45 44 47 52 56 48 49 54 47 41 43 45 48 58 67 65 64 72 63 66 76 83 91 91 92 97 58
89 100 100 100 100 99 86 83 73 63 71 78 75 83 84 80 80 73 42 41 89 100 100 99 72 51 49 55 55 57 60 67 56 54 70 54 41 43 48 51 57 59 64 63 77 90 87 84 95 97 99 100 100 91
100 100 100 100 100 100 81 64 88 100 100 100 79 74 78 78 72 64 36 64 81 72 60 52 50 58 56 55 58 57 64 69 61 41 42 52 48 45 43 47 50 60 86 100 92 81 87 100 100 100 98 96 100 100
100 98 91 69 81 99 84 91 100 100 98 85 72 65 73 70 55 40 53 57 55 60 64 63 66 67 68 79 74 76 77 89 76 58 58 68 57 57 53 52 56 68 100 96 92 91 100 100 100 100 97 85 98 100
87 70 61 61 65 81 98 98 83 69 62 54 40 37 38 48 52 56 62 61 51 61 65 71 88 98 100 100 100 100 94 93 79 51 45 49 54 65 74 71 67 72 81 87 97 100 96 100 100 100 100 96 86 94
54 65 76 76 66 55 49 42 36 39 43 47 53 61 58 56 54 56 55 62 68 65 62 59 72 100 90 81 78 78 84 83 71 70 66 70 89 95 95 82 83 90 94 98 100 100 98 100 100 100 100 100 98 100
44 47 50 52 38 36 53 62 63 72 76 65 60 55 56 68 86 71 62 65 57 51 58 66 74 80 75 68 75 87 92 81 67 73 82 90 100 100 100 100 100 100 100 100 100 100 100 100 100 100 100 100 100 97
58 61 76 84 82 82 93 82 75 78 65 66 69 57 56 67 87 71 71 60 61 62 70 80 82 73 78 82 90 100 100 91 82 78 76 84 95 100 100 100 100 100 100 100 100 100 100 100 100 100 100 100 92 81
94 96 94 90 87 90 72 73 71 66 75 78 84 83 75 69 70 88 85 64 58 66 75 83 76 69 75 84 91 98 100 100 100 100 100 100 100 100 100 100 100 88 66 55 73 100 100 100 99 100 85 82 90 86
96 93 100 100 100 100 100 98 99 95 97 91 84 86 99 95 88 79 75 64 64 72 83 78 80 91 98 100 100 99 95 96 100 100 100 99 100 72 26 19 18 20 23 30 38 81 100 96 89 76 64 67 64 57
100 100 98 83 84 90 99 100 87 77 79 83 94 100 100 100 90 76 76 67 65 82 91 87 90 100 100 100 100 100 100 100 98 96 100 85 46 27 15 14 16 18 21 27 60 82 86 66 42 44 43 39 36 36
Wind_Speed
63 60 59 60 58 57 55 55 55 54 51 50 51 50 50 51 47 45 44 43 43 43 46 47 48 48 48 46 46 49 49 46 48 49 51 50 50 49 50 50 48 48 46 46 48 48 48 43 45 48 49 50 51 52
65 65 66 69 67 64 62 61 60 59 59 57 59 57 58 58 58 54 57 54 48 48 49 51 52 52 53 52 52 51 53 56 59 56 56 58 59 59 57 56 50 51 54 55 53 54 56 55 51 58 59 56 54 51
70 68 68 70 70 67 67 65 63 62 62 62 63 65 63 65 64 66 63 60 61 60 57 58 58 58 55 54 55 54 56 58 61 64 66 65 66 65 63 62 57 52 53 54 58 58 59 61 65 66 66 66 63 59
72 69 69 69 69 68 67 67 69 67 67 70 67 71 69 70 69 71 72 71 68 66 66 61 60 63 60 58 57 59 60 60 62 65 68 70 70 70 67 64 64 59 53 53 55 59 62 63 65 68 68 68 67 66
79 76 74 72 71 70 71 70 71 71 72 74 73 72 73 74 74 74 74 74 72 72 68 68 63 62 62 62 59 59 60 60 62 63 66 69 69 66 65 66 67 51 55 58 58 58 60 57 62 65 67 68 70 71
83 83 82 80 79 78 78 78 79 79 78 77 78 78 78 77 78 80 78 75 69 70 69 67 67 64 62 59 58 56 57 58 60 62 64 67 63 61 62 62 55 51 53 58 61 62 64 63 64 64 64 65 65 65
83 87 83 83 82 82 83 82 81 81 81 81 82 83 81 82 78 71 72 68 65 66 66 65 65 63 61 56 55 57 58 58 58 60 60 60 58 61 63 63 56 55 54 57 62 64 64 63 63 64 65 64 64 65
89 82 76 76 74 69 71 74 71 71 74 74 75 73 73 70 66 60 60 60 62 63 63 62 61 59 59 60 60 59 59 60 58 58 59 59 58 60 63 55 49 48 52 55 58 62 62 62 62 63 64 64 63 63
66 70 69 66 65 67 62 61 63 59 57 55 53 57 58 57 57 58 59 60 60 62 64 61 60 61 61 61 62 63 62 62 63 63 62 61 60 62 56 49 51 52 54 55 56 57 59 60 61 61 61 62 61 59
68 64 65 64 63 61 61 59 60 59 58 58 58 57 56 58 60 61 62 63 63 64 64 61 60 60 61 61 63 63 62 60 60 63 63 62 58 54 53 55 54 54 54 55 57 58 59 61 63 62 62 62 62 62
70 68 65 64 63 61 62 61 58 60 59 59 58 58 59 60 61 63 63 63 63 63 61 58 58 59 60 59 59 61 60 61 64 62 59 59 54 55 55 54 54 55 54 54 55 56 58 58 60 62 62 64 64 63
68 68 67 64 63 60 58 58 59 59 59 60 59 59 59 59 61 62 62 62 60 57 56 56 57 56 54 54 54 55 56 59 59 58 58 57 51 50 50 50 49 47 47 48 49 51 53 56 59 60 61 62 62 63
64 63 62 62 60 58 58 56 54 54 54 53 54 55 56 58 57 56 53 51 49 49 49 48 48 48 46 48 48 49 51 52 54 54 53 50 46 46 48 46 45 44 45 46 49 52 56 58 59 61 62 62 63 63
57 56 57 55 55 53 51 49 49 50 49 50 50 51 51 51 52 47 43 42 42 42 41 39 39 40 40 41 43 45 46 48 47 47 45 41 39 37 44 49 52 54 55 55 55 56 58 59 61 61 60 61 63 63
49 48 47 45 45 45 43 43 42 43 43 43 44 46 47 43 38 36 35 35 35 35 35 36 37 38 38 39 41 44 45 48 48 47 47 47 49 52 58 60 62 63 63 63 62 62 63 63 62 64 66 67 67 69
37 37 39 39 38 35 36 38 38 39 38 38 39 37 34 31 30 30 31 32 33 33 33 34 34 36 38 39 41 44 47 49 48 47 50 51 52 54 56 59 61 61 59 60 62 63 64 66 68 69 69 69 71 75
32 27 27 30 32 34 34 35 35 34 36 35 29 28 28 28 30 30 32 33 32 32 31 31 34 32 33 37 42 46 51 51 51 51 50 51 52 55 57 57 56 53 48 50 54 54 56 58 60 62 63 64 64 64
37 31 30 31 32 33 32 31 31 31 29 25 25 27 28 29 29 30 30 30 28 26 25 28 30 33 38 46 46 48 49 50 50 51 51 50 51 52 51 48 48 47 48 49 52 49 44 41 36 37 39 40 42 42
30 30 31 27 27 27 27 27 29 28 26 24 23 22 25 28 29 28 29 30 29 29 33 35 37 39 45 52 53 55 55 52 51 49 47 46 45 43 41 40 40 47 47 41 37 35 32 33 36 37 40 41 40 35
33 31 28 27 27 26 27 26 25 23 19 17 16 17 24 24 25 26 29 33 35 39 42 43 45 48 54 58 61 65 58 49 47 44 39 36 34 36 38 39 37 30 28 28 29 30 32 33 31 35 39 42 43 35
33 29 26 26 25 25 24 22 20 14 11 11 13 18 19 20 22 25 29 37 43 47 47 49 50 54 59 62 72 61 47 45 44 43 40 36 34 35 30 24 23 23 24 25 29 31 34 34 34 36 38 41 40 36
26 30 26 23 22 24 25 21 21 20 20 16 17 20 23 24 26 31 35 40 44 43 46 48 54 58 65 70 50 40 39 38 37 33 30 30 24 20 21 21 24 24 24 26 31 34 34 35 38 40 41 40 37 32
27 27 28 27 28 28 27 24 27 28 30 27 27 30 32 34 38 41 41 39 37 43 48 53 62 63 52 38 37 36 36 36 31 31 31 25 21 23 25 24 26 28 30 29 34 36 37 39 41 41 41 40 39 32
24 30 33 30 30 30 31 32 32 32 32 35 39 44 48 50 53 55 49 45 48 51 58 56 47 37 34 32 30 28 26 29 30 30 29 28 28 28 30 30 32 34 35 35 39 43 46 46 45 47 46 44 40 35
33 33 38 37 37 34 34 35 37 38 39 41 47 50 52 53 57 56 39 39 39 37 32 30 30 30 30 26 24 26 26 29 31 31 27 29 34 36 36 36 35 34 39 46 47 42 36 34 35 36 38 36 36 36
40 40 38 36 39 39 39 40 41 43 47 52 55 53 52 53 47 31 15 19 22 25 25 25 27 29 29 31 33 32 32 35 38 41 35 36 38 41 42 41 37 30 36 35 34 32 30 30 31 33 33 32 33 34
39 37 35 37 39 41 44 47 50 54 55 48 41 38 31 24 12 15 19 22 25 24 22 23 28 31 33 32 33 34 35 35 34 34 34 35 36 36 33 29 26 25 28 31 34 34 33 31 29 29 31 31 30 30
38 40 41 41 42 45 46 43 39 33 28 24 20 20 20 20 19 23 26 26 24 20 23 28 33 35 35 35 35 36 34 33 27 24 22 22 25 27 31 32 34 34 33 33 33 33 33 33 29 26 26 29 28 29
39 41 44 44 37 26 18 19 16 16 16 16 15 16 16 17 20 24 21 21 23 27 30 31 29 31 31 31 31 28 27 27 27 27 27 26 27 28 32 32 32 32 33 33 33 34 34 32 28 26 26 25 25 26
12 11 9 8 6 5 10 17 13 15 16 18 18 14 12 13 20 23 21 23 25 27 28 24 25 28 23 19 17 20 26 29 30 30 30 28 28 29 30 31 32 34 36 35 33 30 29 27 23 25 24 20 19 19
5 4 3 4 6 12 14 15 16 16 19 21 24 26 21 18 16 22 26 26 26 25 21 21 19 18 19 22 24 24 22 25 27 28 29 30 32 34 35 37 39 38 35 30 26 23 21 21 19 21 17 13 11 12
2 4 6 7 10 15 16 15 17 19 21 21 22 24 28 30 27 23 25 25 25 20 18 17 17 20 23 25 26 26 25 23 24 25 29 33 38 40 36 32 28 26 21 19 15 13 13 16 16 12 7 5 4 5
4 6 10 16 19 23 27 26 22 19 18 20 24 28 31 29 25 25 24 22 17 13 14 15 18 20 22 23 23 22 23 24 26 29 32 36 39 34 28 24 20 17 13 9 6 6 9 9 5 4 5 6 8 10
Wind_Direction
257 257 260 262 263 264 266 268 270 271 271 271 273 277 280 278 277 277 278 282 287 288 287 290 289 286 285 284 283 279 278 279 280 282 281 282 281 282 283 283 282 278 274 274 273 276 279 275 274 274 274 275 276 277
255 260 262 263 261 260 262 265 266 268 269 270 272 274 277 278 279 281 282 283 284 285 285 286 284 282 282 281 280 277 275 275 275 275 275 276 278 277 281 283 283 280 276 275 274 276 277 277 274 273 275 277 278 278
252 254 256 260 260 261 262 261 262 264 267 267 269 274 275 278 281 283 281 281 288 290 290 286 283 281 279 278 279 277 276 273 272 272 273 273 274 275 278 280 283 283 281 279 276 272 270 271 271 273 275 278 278 278
254 253 254 256 259 260 259 262 263 263 264 267 268 272 275 276 276 281 283 283 286 286 291 286 281 282 278 278 277 276 276 274 272 273 272 272 274 274 274 277 277 279 282 281 275 272 270 272 275 275 277 278 279 279
259 258 259 259 259 259 260 261 262 264 266 268 269 271 273 275 277 277 279 281 283 285 285 285 278 273 274 275 274 274 274 274 273 273 274 274 274 276 276 274 275 280 277 273 276 276 276 275 273 274 274 275 276 276
259 261 261 262 262 262 263 264 265 265 265 266 269 271 272 273 274 276 277 279 278 277 275 276 278 275 274 274 276 278 276 274 274 273 273 273 275 277 278 277 279 276 272 271 270 269 271 273 273 273 274 275 276 275
256 259 259 260 261 263 265 265 267 267 267 267 268 269 269 270 271 272 274 275 271 269 269 269 269 270 274 277 277 277 277 276 276 276 277 278 277 275 275 277 279 278 277 273 271 273 272 271 272 274 277 278 277 275
251 252 255 257 256 258 260 261 261 262 259 261 262 263 266 267 268 269 269 268 269 271 271 270 271 272 275 276 276 274 274 275 276 276 276 276 276 277 277 282 281 275 269 269 271 273 274 276 277 277 277 276 275 275
260 260 263 265 262 258 261 263 259 260 264 264 264 266 264 265 265 268 268 269 270 270 271 271 274 274 274 275 276 277 278 279 279 280 280 280 280 280 284 279 272 271 272 273 274 275 276 275 274 274 274 274 274 274
259 260 260 261 262 263 262 261 265 266 267 269 270 268 267 268 268 268 269 269 268 269 270 272 273 273 274 275 275 277 277 278 279 279 279 278 280 280 276 275 276 275 274 274 272 270 268 269 271 271 271 271 272 272
259 260 260 261 261 260 261 263 262 263 263 263 261 261 262 262 264 265 266 268 269 270 271 272 272 273 274 275 276 276 279 279 278 279 278 278 279 276 277 276 276 275 274 273 271 270 269 268 267 268 269 270 271 272
256 258 259 261 262 262 261 260 261 260 260 261 262 263 263 264 264 265 265 267 269 271 273 274 273 274 276 277 278 279 278 279 279 280 279 280 279 278 278 278 275 273 271 270 269 269 268 268 268 268 267 267 268 269
256 256 257 258 258 259 260 260 259 259 260 260 260 261 263 264 264 267 269 270 271 272 274 274 274 276 276 276 276 276 277 278 278 278 279 283 285 282 279 277 276 271 266 264 264 263 263 264 265 267 268 268 269 269
250 253 254 256 257 258 258 258 258 259 259 259 260 261 263 267 266 269 269 272 272 272 272 272 272 271 270 271 273 276 277 278 279 283 288 288 280 275 275 276 276 277 277 275 273 269 267 269 269 268 269 269 269 269
246 247 248 249 252 252 252 253 252 252 253 254 258 261 262 263 266 268 270 270 270 271 270 270 270 271 271 273 275 277 278 278 279 281 277 275 276 278 280 280 278 277 277 276 276 275 276 276 273 274 275 275 275 275
235 238 241 247 250 249 245 246 246 246 247 250 255 255 258 261 264 265 264 264 264 266 266 267 272 275 275 279 280 281 282 283 284 281 278 278 278 278 276 275 276 278 280 279 278 276 275 274 273 274 274 274 273 275
227 237 240 236 235 237 240 242 244 243 244 249 248 253 257 260 262 262 261 263 267 267 274 280 282 287 300 301 298 298 296 295 294 294 290 285 280 278 280 285 288 288 285 284 281 280 279 277 276 276 276 276 279 280
218 229 237 232 230 232 232 232 236 243 246 245 245 248 250 248 251 258 263 265 266 270 277 281 286 303 320 320 311 312 305 299 295 293 291 289 289 290 289 292 294 294 292 288 286 290 290 290 289 293 295 295 295 296
213 227 225 221 222 228 233 236 238 242 242 240 242 246 249 252 253 254 254 255 257 268 283 290 299 320 315 313 311 310 309 305 300 298 299 297 296 294 292 291 290 292 288 285 288 290 289 290 295 297 298 298 296 300
212 217 218 214 216 224 229 235 239 245 244 234 227 238 242 247 254 257 254 258 264 276 284 296 309 306 301 309 312 316 312 307 306 306 305 302 294 289 289 292 288 282 279 286 287 284 286 288 290 296 305 306 303 304
206 210 211 213 216 220 230 241 244 231 220 221 218 225 239 254 260 262 265 268 272 281 295 304 298 296 301 307 309 310 307 306 311 308 306 297 294 294 288 275 263 268 277 280 281 279 284 288 295 293 301 312 302 303
211 215 221 218 220 227 237 249 252 246 249 267 255 259 268 279 285 281 276 274 281 294 298 297 293 299 302 305 304 301 302 304 305 303 297 296 296 274 264 263 268 277 286 289 286 285 285 287 289 291 295 303 308 305
209 223 223 223 230 234 244 257 263 263 267 272 275 275 281 282 285 292 282 284 300 303 297 297 300 300 301 302 301 302 300 298 292 292 299 295 281 270 269 273 282 289 287 286 288 287 290 290 289 288 291 294 298 298
217 228 228 228 232 239 254 262 269 276 282 289 295 292 291 291 294 301 309 316 315 302 294 294 296 297 297 298 298 300 298 292 291 289 293 292 281 278 277 282 285 286 290 291 291 292 292 295 293 289 286 287 287 287
214 224 224 231 238 243 252 269 274 276 280 283 287 293 293 294 298 305 314 310 297 288 294 293 291 295 298 301 299 296 296 295 292 292 295 294 287 286 288 289 290 293 296 299 298 300 303 301 297 294 290 281 280 281
213 220 231 242 245 249 261 265 268 273 276 281 288 293 295 296 302 309 296 276 281 282 286 299 307 307 309 307 306 305 300 292 289 289 291 286 289 292 296 298 301 303 295 295 299 301 304 306 306 301 295 285 273 274
225 235 239 244 251 257 259 262 267 276 284 288 286 287 295 302 295 272 272 274 278 288 300 308 310 306 306 307 307 306 305 304 300 299 299 297 299 300 302 301 300 300 296 296 298 300 301 303 300 301 299 292 281 272
235 238 242 249 259 271 274 275 275 277 278 279 292 297 289 281 273 273 275 282 293 291 296 304 306 305 298 298 303 308 311 313 317 319 316 315 312 308 305 305 306 306 303 301 300 300 303 306 307 296 295 294 281 272
250 255 257 262 267 266 265 268 275 283 281 279 277 280 281 278 285 281 280 282 287 296 301 303 304 301 303 308 314 316 317 318 319 318 316 315 308 301 299 301 301 300 299 298 297 297 297 298 300 291 292 291 284 278
217 229 239 255 273 270 274 268 273 277 286 299 306 300 293 290 285 290 296 293 296 304 312 310 302 304 311 313 313 310 310 312 315 318 319 319 317 312 309 305 302 301 300 297 295 291 290 291 290 289 295 289 288 283
286 318 327 302 252 244 280 299 304 309 309 306 304 307 308 297 290 294 293 294 302 315 318 312 311 315 323 324 322 322 320 315 317 319 320 321 320 317 313 309 305 302 300 298 291 283 281 283 287 293 292 291 293 282
107 70 41 9 349 341 327 314 304 299 301 301 299 302 308 310 312 305 294 299 313 319 313 309 313 318 320 322 324 327 330 333 333 329 327 326 323 321 320 316 313 309 307 302 289 275 274 283 286 289 281 271 249 233
218 272 301 318 322 319 319 317 306 297 295 297 300 296 297 301 303 303 309 316 320 309 305 312 316 320 323 326 329 331 339 345 344 338 335 333 333 335 333 329 326 324 319 310 293 277 284 290 279 237 210 174 147 137